Starlink 11441

operational
NORAD ID: 62413 Int'l Des: 2024-249 Owner: SPXS Country: US Constellation: starlink
LEOCIRCULAR

Über Starlink 11441

Beschreibung wird geladen...

Live-Position

3D-Globus wird geladen...

Nächste Überflüge

Höhenverlauf

Altitude vs Time

uPlot chart will show altitude changes over time

Zweizeiliger Elementsatz

1 62413U 24249E 25352.55655798 .00245330 00000-0 18546-2 0 9997
2 62413 43.0002 296.4174 0000923 19.2990 340.7912 15.70903496 56724
Epoch: 18. Dez. 2025 • Age: 11 hours

Aktueller Status

Höhe 356.5 km
Geschwindigkeit 7.70 km/s
Subsatellitenpunkt 30.38°N, 21.94°W
Startdatum 23. Dez. 2024
Alter 0.9 years
Typ internet

Technische Details

Klassifizierung Payload
Masse 960.00 kg
Trockenmasse 910.00 kg
Gesamtmasse 960.00 kg
Länge 0.30 m
Durchmesser 4.10 m
Spannweite 29.00 m
Form Box + pan
Hersteller SPXS
Bus-Typ Starlink V2MD
Phasenstatus In Orbit
Besitzer/Staat SPXS/US

Große Konstellationen

Loading constellations...